Regional Weather Roundup
Issued by NWS

Home | Current Version | Previous Version | Graphics & Text | Print | Product List | Glossary On
Versions: 1 2 3 4 5 6 7 8 9 10 11 12 13 14 15 16 17 18 19 20 21 22 23 24 25 26 27 28 29 30 31 32 33 34 35 36 37 38 39 40 41 42 43 44 45 46 47 48 49 50
000
ASUS43 KMPX 301610
RWRMN
WEATHER ROUNDUP FOR MINNESOTA
NATIONAL WEATHER SERVICE TWIN CITIES/CHANHASSEN MN
1100 AM CDT SAT MAY 30 2015


NOTE: "FAIR" INDICATES FEW OR NO CLOUDS BELOW 12,000 FEET WITH NO
SIGNIFICANT WEATHER AND/OR OBSTRUCTIONS TO VISIBILITY. N/A MEANS
CURRENT SKY AND/OR WEATHER CONDITIONS ARE NOT AVAILABLE.

MNZ060>063-068>070-301700-
   Twin Cities Metro

CITY           SKY/WX    TMP DP  RH WIND       PRES   REMARKS
TWIN CITIES    PTSUNNY   56  41  57 N10G21    30.22S
ST PAUL        MOSUNNY   53  41  63 N12G24    30.23R
CRYSTAL        MOSUNNY   56  39  53 NE15      30.22S
LAKEVILLE      PTSUNNY   54  45  71 N10G17    30.21R
EDEN PRAIRIE   MOSUNNY   55  40  56 N13       30.21S
SOUTH ST PAUL  MOSUNNY   56  42  60 N10       30.22R
LAKE ELMO      CLOUDY    54  43  66 NE10G16   30.23R
$$
MNZ001>005-007-008-013>017-022>024-027-028-301700-
   Northwest Minnesota

CITY           SKY/WX    TMP DP  RH WIND       PRES   REMARKS
BEMIDJI        SUNNY     44  30  58 N10       30.34S
HALLOCK        SUNNY     45  27  49 N8        30.42S
ROSEAU         SUNNY     43  28  56 N10       30.40S
WARROAD        SUNNY     43  30  61 NE8       30.40S
THIEF RVR FALL SUNNY     43  28  56 NE13      30.39S
CROOKSTON      SUNNY     45  28  53 N9G16     30.40F
FOSSTON        SUNNY     43  37  81 N9        30.37S
DETROIT LAKES  SUNNY     45  34  65 NW5       30.34S
MOORHEAD       SUNNY     45  34  65 N12G17    30.38F
PARK RAPIDS    SUNNY     48  29  47 N12       30.32S
MAHNOMEN       FAIR      44  35  70 N12G17    30.36R
$$
MNZ006-009>011-018-025>026-301700-
   North Central Minnesota

CITY           SKY/WX    TMP DP  RH WIND       PRES   REMARKS
BAUDETTE       SUNNY     44  28  53 N10G17    30.38R
FLAG ISLAND    SUNNY     39  27  60 N9        30.39S
INTL FALLS     MOSUNNY   43  27  53 VRB6      30.36R
WASKISH        SUNNY     45  32  61 N7        30.37R
BIG FORK       SUNNY     46  28  49 N8        30.34S
LONGVILLE      SUNNY     46  32  57 NE3       30.32S
GRAND RAPIDS   SUNNY     45  28  53 N14G22    30.32R
CRANE LAKE       N/A     41  27  56 NW5       30.36S
COOK           SUNNY     43  30  61 N5        30.33S
WALKER         FAIR      43  30  59 N5        30.34R
$$
MNZ012-019>021-037-301700-
   Northeast Minnesota

CITY           SKY/WX    TMP DP  RH WIND       PRES   REMARKS
DULUTH         MOSUNNY   50  33  52 N12       30.27R
HIBBING        SUNNY     46  29  51 N14       30.31S
EVELETH        SUNNY     45  30  57 N6        30.31S
DULUTH HARBOR  SUNNY     52  37  58 E3        30.30R
TWO HARBORS    SUNNY     54  36  50 N7        30.26R
SILVER BAY     SUNNY     52  34  50 NW6       30.26S
GRAND MARAIS     N/A     52  28  39 VRB3      30.28R
G MARAIS ARPRT SUNNY     43  27  52 N10G20    30.26R
$$
MNZ029>031-032-039>041-046>048-054>057-064-301700-
   West Central Minnesota

CITY           SKY/WX    TMP DP  RH WIND       PRES   REMARKS
FERGUS FALLS   SUNNY     46  36  66 N6        30.35S
WHEATON        MOSUNNY   45  37  76 NW12G18   30.37R
MORRIS         PTSUNNY   50  41  71 N12       30.31S
ALEXANDRIA     MOSUNNY   49  36  61 N12       30.31S
ELBOW LAKE     FAIR      47  37  69 N6G17     30.32S
WADENA         SUNNY     46  36  66 N10       30.31S
GLENWOOD       SUNNY     50  37  62 N13       30.30S
APPLETON       PTSUNNY   54  39  58 N12G17    30.31S
BENSON         MOSUNNY   52  36  54 NE12G17   30.31R
ORTONVILLE     MOSUNNY   46  39  76 N15       30.33R
MADISON        MOSUNNY   50  41  71 N8        30.31S
WILLMAR        FAIR      52  41  66 N12G18    30.30R
$$
MNZ033>034-036-042>043-049>051-058-059-301700-
   Central Minnesota

CITY           SKY/WX    TMP DP  RH WIND       PRES   REMARKS
ST CLOUD       SUNNY     52  38  58 N9G20     30.27R
SAUK CENTRE    FAIR      49  36  61 N12       30.30R
PAYNESVILLE    MOSUNNY   47  37  68 NW10      30.29R
AITKIN         SUNNY     50  34  53 N13       30.29R
PINE RIVER     SUNNY     46  34  61 N10       30.34S
BRAINERD       SUNNY     49  33  54 N12       30.30S
STAPLES        SUNNY     46  32  57 NE8G18    30.31S
LONG PRAIRIE   FAIR      46  34  61 N8G16     30.30S
LITTLE FALLS   SUNNY     50  32  50 N3        30.29S
LITCHFIELD     SUNNY     54  43  66 N9        30.27S
BUFFALO        SUNNY     54  37  53 N12G17    30.26R
MAPLE LAKE     SUNNY     54  41  62 N13       30.27R
$$
MNZ037-044-045-052-053-301700-
   East Central Minnesota

CITY           SKY/WX    TMP DP  RH WIND       PRES   REMARKS
PRINCETON      SUNNY     54  39  58 N15G21    30.27R
MORA           SUNNY     50  34  53 NE5       30.28R
CAMBRIDGE      SUNNY     55  39  54 N10       30.24R
RUSH CITY      SUNNY     53  39  59 NE13G18   30.26R
MOOSE LAKE     SUNNY     50  32  50 N8G16     30.26R
HINCKLEY       FAIR      52  39  62 N9G18     30.26S
CLOQUET        SUNNY     50  32  50 N8        30.28R
MCGREGOR       SUNNY     48  32  53 NW13G18   30.30R
$$
MNZ071>073-080-081-089-090-097-098-301700-
   Southwest Minnesota

CITY           SKY/WX    TMP DP  RH WIND       PRES   REMARKS
MONTEVIDEO     MOSUNNY   54  41  62 NE14      30.31S
GRANITE FALLS  MOSUNNY   52  39  61 N16       30.31R
CANBY          PTSUNNY   49  41  73 N10G16    30.33R
MARSHALL       PTSUNNY   52  37  58 N15G21    30.28S
REDWOOD FALLS  PTSUNNY   53  40  61 N15G21    30.27R
OLIVIA         MOSUNNY   50  37  62 N14       30.26S
PIPESTONE      MOSUNNY   48  39  71 NE13G22   30.27R
WINDOM         PTSUNNY   52  43  71 N17       30.25R
WORTHINGTON    PTSUNNY   52  41  66 N18G25    30.25R
JACKSON        PTSUNNY   50  43  76 N20G28    30.24R
TRACY          MOSUNNY   51  42  71 N16G24    30.27S
SLAYTON        MOSUNNY   49  42  76 N17       30.27R
$$
MNZ065>067-074>077-082>085-091>093-301700-
   South Central Minnesota

CITY           SKY/WX    TMP DP  RH WIND       PRES   REMARKS
MANKATO        PTSUNNY   54  39  58 N17       30.23R
NEW ULM        MOSUNNY   54  41  62 N8G16     30.24R
ST JAMES       PTSUNNY   54  45  71 N13       30.25R
FAIRMONT       PTSUNNY   52  39  62 N20       30.21R
GLENCOE        MOSUNNY   54  43  67 N14G22    30.24R
FARIBAULT      CLOUDY    54  45  71 N13G20    30.21R
OWATONNA       PTSUNNY   54  45  71 N14G22    30.20R
WASECA         PTSUNNY   54  45  71 N16       30.21R
ALBERT LEA     CLOUDY    54  48  82 N14       30.18R
$$
MNZ078>079-086>088-094>096-301700-
   Southeast Minnesota

CITY           SKY/WX    TMP DP  RH WIND       PRES   REMARKS
ROCHESTER      CLOUDY    53  46  77 N14       30.18R
RED WING       CLOUDY    55  45  67 NE13G20   30.19R
STANTON        PTSUNNY   54  45  71 N16       30.19S
DODGE CENTER   CLOUDY    52  46  82 N15       30.18R
WINONA         CLOUDY    55  46  71 N6        30.17R
AUSTIN         CLOUDY    55  48  76 N12       30.16R
PRESTON        CLOUDY    52  47  83 N15G22    30.15S
$$
ABBREVIATIONS USED IN REMARKS
   TC - TEMPERATURES IN CELSIUS
  WCI - WIND CHILL INDEX
   HX - HEAT INDEX
  VSB - VISIBILITY
$$



USA.gov is the U.S. government's official web portal to all federal, state and local government web resources and services.